GONETS D1 9

Satellite information

Favourite Embed

Satellite Type and Status

PAYLOADIN ORBIT

Key statistics

Satellite GONETS D1 9 at a glance.

Uptime

8653

Days in orbit

Revolutions

≈ 12.6

Per day

Orbit

LEO

Low Earth Orbit

Inclination

82.5

Latest

Satellite identification and parameters

Extended collection of information and parameters for GONETS D1 9.

Object identification

Identified? True

Debris? False

Object name: GONETS D1 9

International designator: 2001-058F

Object number (NORAD): 27060

Object ID (CCSDS): 27060

Country: COMMONWEALTH OF INDEPENDENT STATES (CIS)

Current information (Y/N): Y

RCS size: MEDIUM

Orbital parameters

Period: 114.009 minutes

Inclination: 82.544 deg

SMA: 7788.499 km

Apoapsis: 1416.453 km

Periapsis: 1404.274 km

RAAN: 18.6413 deg

Eccentricy: 0.00078183

Argument of periapsis: 225.4162 deg

Mean anomaly: 134.6292 deg

Mean motion: 12.63054624 rev/day

Mean motion (dot): 0.00000003 rev/day2

B* drag term: -0.000039078479 1/REarth

Two-line elements (TLE)

Creation date: Sept. 6, 2025, 2:09 a.m.

Reference frame: TEME

Reference center: EARTH

Epoch: Sept. 5, 2025, 8:15 p.m. UTC

TLE line 0: 0 GONETS D1 9

TLE line 1: 1 27060U 01058F 25248.84441011 .00000003 00000-0 -39078-4 0 9998

TLE line 2: 2 27060 82.5440 18.6413 0007818 225.4162 134.6292 12.63054624 91931

Live tracking on map

Real-time ground track for satellite GONETS D1 9.

In-orbit conjunctions

There are no conjunctions computed for GONETS D1 9, at the moment. Check back to stay up to date, as we update our databases every day.

Go to all conjunctions

Associated space launch

Gonets- satellite were the civilian derivate of the military Strela-3 satellite system. The Gonets system was offered to support international health organizations to meet their global communications needs for the transfer of medical data and records to remote sites. Strela-3 was second generation of strategic store-dump military communications satellite. Development of this generation to replace the first generation Strela-1M and Strela-2M satellites began in 1973.

GONETS D1 9 was lifted into orbit during the mission ‘Tsiklon-3 | Strela-3 128 to 130 & Gonets 10 to 12’, on board a Tsiklon-3 space rocket.

The launch took place on Dec. 28, 2001, 3:24 a.m. from 32/1.

For more information about the launch, click the button.

Launch to space Tsiklon-3 | Strela-3 128 to 130 & Gonets 10 to 12
Tsiklon-3 | Strela-3 128 to 130 & Gonets 10 to 12

Agency: N/A

Status: Launch Successful

Launch date: Dec. 28, 2001, 3:24 a.m. UTC

Rocket: Tsiklon-3

Launch pad: 32/1

Location: Plesetsk Cosmodrome, Russian Federation

...

Latest news about this satellite

There are no fresh news available about this satellite. Check back as we update our databases every day.


Newsletter sign-up

Weekly statistics, charts and insights to help you stay on top of the space industry.